Вернуться в каталог

STARLINK-36674

АктивенСвязьSSO
NORAD 67661·PAYLOAD·🇺🇸 United States

Запущен Feb 2, 2026 с Vandenberg Space Force Base

Loading…

Ближайшие Пролёты (ближайшие 24 часа)

TLE

СвежийSource: CelesTrak SupGP

Эпоха: Sep 15, 2026, 02:57 UTC

1 67661C 26022P   26258.12340278 -.00035387  00000+0 -10984-2 0  2587
2 67661  97.2840 289.7982 0001383  84.8360 336.7351 15.33458512    13

Отслеживайте STARLINK-36674 в реальном времени с AllMySat

Download on the App Store